Regional Weather Roundup
Issued by NWS Upton, NY

Current Version | Previous Version | Text Only | Print | Product List | Glossary Off
Versions: 1 2 3 4 5 6 7 8 9 10 11 12 13 14 15 16 17 18 19 20 21 22 23 24 25 26 27 28 29 30 31 32 33 34 35 36 37 38 39 40 41 42 43 44 45 46 47 48 49 50
000 ASUS41 KOKX 060018 RWROKX REGIONAL WEATHER ROUNDUP NATIONAL WEATHER SERVICE NEW YORK NY 800 PM EDT SUN JUL 05 2015 NOTE: "FAIR" INDICATES FEW OR NO CLOUDS BELOW 12,000 FEET WITH NO SIGNIFICANT WEATHER AND/OR OBSTRUCTIONS TO VISIBILITY. NYZ071-072-176-178-NJZ106-104-060100- NEW YORK CITY METRO AREA CITY SKY/WX TMP DP RH WIND PRES REMARKS CENTRAL PARK PTCLDY 78 61 55 VRB3 30.13S LAGUARDIA APRT MOCLDY 77 62 59 VRB7 30.10S KENNEDY INTL MOCLDY 75 63 66 S15 30.11F NEWARK/LIBERTY MOCLDY 79 64 60 S6 30.10S BRNX BOT. GARD N/A 75 63 64 E5 30.13S TETERBORO PTCLDY 78 63 59 S6 30.09R $$ NYZ177-179-078>081-060100- LONG ISLAND NEW YORK CITY SKY/WX TMP DP RH WIND PRES REMARKS FARMINGDALE PTCLDY 74 63 68 SW9 30.13R ISLIP MOCLDY 73 63 70 SW9 30.11S SHIRLEY PTCLDY 73 64 73 S8 30.13S WESTHAMPTON PTCLDY 71 64 78 SW10 30.14R MONTAUK POINT N/A 72 62 71 VRB6 30.12S $$ NYZ052-065-067-060100- HUDSON VALLEY CITY SKY/WX TMP DP RH WIND PRES REMARKS WHITE PLAINS PTCLDY 75 63 66 S7 30.11S NEWBURGH CLEAR 77 64 65 CALM 30.11F MONTGOMERY PTCLDY 76 65 68 SW3 30.09S POUGHKEEPSIE PTCLDY 78 62 57 SE3 30.08S ALBANY PTCLDY 76 60 57 SW7 30.09R $$ NJZ001-105-106-008-010-013-015-019>022-104-060100- NEW JERSEY CITY SKY/WX TMP DP RH WIND PRES REMARKS NEWARK/LIBERTY MOCLDY 79 64 60 S6 30.10S TETERBORO PTCLDY 78 63 59 S6 30.09R CALDWELL PTCLDY 79 62 56 SW3 30.11R MORRISTOWN CLOUDY 79 63 57 SW6 30.11S SOMERVILLE PTCLDY 74 65 73 CALM 30.10R SUSSEX PTCLDY 75 65 70 CALM 30.12S ANDOVER N/A 73 66 78 CALM 30.13S TRENTON MOCLDY 80 64 58 CALM 30.11R MILLVILLE MOCLDY 75 67 76 CALM 30.13R ATLANTIC CITY PTCLDY 75 65 70 S6 30.14R WRIGHTSTOWN PTCLDY 77 68 75 S7 30.10R TOMS RIVER PTCLDY 75 64 69 CALM 30.13R BELMAR PTCLDY 75 63 64 S7 30.13R $$ PAZ047>061-062-071-060100- EASTERN PENNSYLVANIA CITY SKY/WX TMP DP RH WIND PRES REMARKS PHILADELPHIA MOCLDY 81 65 58 S5 30.12R ALLENTOWN MOCLDY 75 63 66 W3 30.12R SCRANTON PTCLDY 73 63 70 CALM 30.14R $$ CTZ002-004>006-009-010-012-RIZ004-006-007-MAZ004-011-015-060100- SOUTHERN NEW ENGLAND IN CT CITY SKY/WX TMP DP RH WIND PRES REMARKS BRADLEY INTL CLEAR 77 59 53 W5 30.09R HARTFORD CLEAR 82 54 37 VRB6 30.08S DANBURY PTCLDY 75 63 66 CALM 30.12S WTRBRY/OXFORD PTCLDY 75 61 60 MISG 30.15S BRIDGEPORT PTCLDY 76 66 71 S13 30.10S MERIDEN CLEAR 77 64 64 S3 30.10R NEW HAVEN MOCLDY 74 66 76 SW3 30.11R CHESTER FAIR 72 63 73 SW6 30.12S GROTON CLEAR 71 63 75 SW6 30.10S WILLIMANTIC CLEAR 77 64 64 SW6 30.10R IN RI CITY SKY/WX TMP DP RH WIND PRES REMARKS PROVIDENCE PTCLDY 76 64 66 SW8 30.09S BLOCK ISLAND CLEAR 70 63 78 SW15 30.11F WESTERLY CLEAR 72 64 76 W5 30.11S IN MA CITY SKY/WX TMP DP RH WIND PRES REMARKS BOSTON PTCLDY 80 59 48 SW9 30.06 WORCESTER CLEAR 74 61 63 W5 30.12S WESTFIELD CLEAR 76 60 57 W3 30.09R PROVINCETOWN CLEAR 72 12 10 S10 30.08S NANTUCKET CLEAR 66 63 90 SW12 30.12R $$ ANZ330-335-338-340-345-350-353-355-060100- COASTAL MARINE OBSERVATIONS STATION/POSITION TIME SKY/WX TEMP WIND PRES VSBY WAVE AIR SEA DIR/SP/G HT/PER (UTC) (F) (DEG/KT/KT) (MB) (MI) (FT/S) NY HARB ENTRANCE 2350 72 70 190/ 12/ 12 1019.6 3/ 8 4S FIRE IS 2303 71 N/A 3/ 8 20S FIRE ISLAND 2350 71 71 210/ 10/ 12 1020.0 3/ 8 GREAT SOUTH BAY 2315 72 76 240/ 10/ 12 N/A 23SW MTP 2350 70 69 230/ 10/ 14 1019.7 4/ 8 HUDSON CANYON NOT AVBL KINGS POINT 2300 76 69 190/ 10/ 12 1018.9 CENTRAL LI SOUND NOT AVBL EASTERN LI SOUND 2300 69 64 250/ 6/ 8 N/A ROBBINS REEF 2300 72 160/ 14/ 16 1018.3 $$ >>>>>>>>>>>>>>>>>>>>>>>>>>>> KEY <<<<<<<<<<<<<<<<<<<<<<<<<<< > < > SKY/WX - SKY CONDITION/PRESENT WEATHER < > TMP - TEMPERATURE IN FAHRENHEIT < > DP - DEWPOINT IN FAHRENHEIT < > RH - RELATIVE HUMIDITY IN PERCENT < > WIND - DIRECTION AND SPEED IN MPH < > PRES - MEAN SEA LEVEL PRESSURE IN INCHES OF HG < > WCI - WIND CHILL INDEX < > VSB - VISIBILITY IN MILES < > HX - HEAT INDEX < > TC - TEMPERATURE IN CELSIUS < > VRB - VARIABLE WIND DIRECTION < > < >>>>>>>>>>>>>>>>>>>>>>>>>>>> KEY <<<<<<<<<<<<<<<<<<<<<<<<<<<

USA.gov is the U.S. government's official web portal to all federal, state and local government web resources and services.